Location: Kershaw
(34.5481°N, 80.5823°W)
Time: 14:31:39
(UTC+00:00)

Transit 4A - Pass Details

Date: 03 October 2022
Orbit: 871 x 972 km, 66.8° (Epoch: 29 November)

Event Time Altitude Azimuth Distance (km) Brightness Sun altitude
Rises 10:44:22 0° 352° (N) 3,486 10.8 -7.9°
Reaches altitude 10° 10:48:36 10° 21° (NNE) 2,530 10.5 -7.0°
Maximum altitude 10:51:01 13° 45° (NE) 2,345 10.7 -6.5°
Drops below altitude 10° 10:53:25 10° 70° (ENE) 2,519 11.5 -6.0°
Sets 10:57:35 0° 99° (E) 3,453 13.4 -5.1°
